Regional Weather Roundup
Issued by NWS

Home | Current Version | Previous Version | Graphics & Text | Print | Product List | Glossary On
Versions: 1 2 3 4 5 6 7 8 9 10 11 12 13 14 15 16 17 18 19 20 21 22 23 24 25 26 27 28 29 30 31 32 33 34 35 36 37 38 39 40 41 42 43 44 45 46 47 48 49 50
000
ASUS43 KFSD 221302
RWRSD

WEATHER ROUNDUP FOR SOUTH DAKOTA
NATIONAL WEATHER SERVICE SIOUX FALLS SD
800 AM CDT WED OCT 22 2014

NOTE: "FAIR" INDICATES FEW OR NO CLOUDS BELOW 12,000 FEET WITH NO
SIGNIFICANT WEATHER AND/OR OBSTRUCTIONS TO VISIBILITY.


SDZ001>005-009-010-012>017-221400-
NORTHWEST AND NORTH CENTRAL SOUTH DAKOTA

CITY           SKY/WX    TMP DP  RH WIND       PRES   REMARKS
FAITH            N/A     53  42  66 NW15      29.89R
MOBRIDGE       CLOUDY    59  48  67 NW20G26   29.78S
$$

SDZ012>016-024>037-041>051-057-063-072>074-221400-
SOUTHWEST AND SOUTH CENTRAL SOUTH DAKOTA

CITY           SKY/WX    TMP DP  RH WIND       PRES   REMARKS
RAPID CTY ARPT CLOUDY    52  34  50 N20G30    29.92R
PIERRE         CLOUDY    61  46  57 NW23G31   29.82R
CUSTER         CLOUDY    45  37  73 W5        29.98R
PHILIP         LGT RAIN  52  45  77 NW14      29.88F
PINE RIDGE     CLOUDY    52  50  93 S6        29.94R
SPEARFISH      FAIR      48  34  57 W14G20    30.01R
WINNER         FAIR      63  52  67 SW5       29.87R
$$

SDZ004>011-016>023-039-040-221400-
NORTHEAST SOUTH DAKOTA

CITY           SKY/WX    TMP DP  RH WIND       PRES   REMARKS
ABERDEEN       MOCLDY    55  43  63 S17G26    29.83S
WATERTOWN      CLEAR     52  44  74 S24G35    29.89F
SISSETON         N/A     50  43  77 S14       29.88F
$$

SDZ017-020-022-023-036>040-048>070-221400-
SOUTHEAST SOUTH DAKOTA

CITY           SKY/WX    TMP DP  RH WIND       PRES   REMARKS
SIOUX FALLS    PTCLDY    53  44  71 S17G25    29.99F
HURON          CLEAR     54  43  66 S16G26    29.87R
CHAMBERLAIN    CLEAR     58  52  79 S7        29.84S
MITCHELL       CLEAR     54  44  69 S17G23    29.90S
YANKTON        CLEAR     54  43  66 SE16G22   29.97F
$$

ABBREVIATIONS USED IN REMARKS
   TC - TEMPERATURE IN CELSIUS
  WCI - WIND CHILL INDEX
   HX - HEAT INDEX
  VSB - VISIBILITY




USA.gov is the U.S. government's official web portal to all federal, state and local government web resources and services.